DAL1881 KMSP-MMUN

Flight info

Callsign DAL1881
Flight time N/A
Altitude 35000
Route RST1 ALO DCT WELTS DCT CARIN DCT MCB J35 LEV L214 IRDOV UL214 NUDIS UT38 LEVAT DCT ITLOM DCT VOMAR VOMAR1A
Aircraft A321/M-SDE3FGHIRWY/LB1

Departure

Time 2026-05-01 15:07
Airport Minneapolis–Saint Paul International Airport / Wold–Chamberlain Field (KMSP)

Arrival

Time N/A
Airport Cancún International Airport (MMUN)
Time Latitude Longitude Altitude Speed Heading
2026-05-01 14:50 44.88376 -93.21393 825 ft 0 kts 219°
2026-05-01 14:59 44.88393 -93.21373 824 ft 4 kts 219°
2026-05-01 14:59 44.88409 -93.21354 825 ft 4 kts 235°
2026-05-01 15:00 44.88406 -93.21294 822 ft 2 kts 293°
2026-05-01 15:00 44.88406 -93.21292 822 ft 0 kts 293°
2026-05-01 15:02 44.88427 -93.21362 825 ft 11 kts 293°
2026-05-01 15:02 44.88455 -93.21448 825 ft 9 kts 298°
2026-05-01 15:03 44.88498 -93.21562 825 ft 19 kts 292°
2026-05-01 15:03 44.88541 -93.21728 826 ft 15 kts 278°
2026-05-01 15:03 44.88482 -93.21850 825 ft 19 kts 225°
2026-05-01 15:03 44.88377 -93.21995 825 ft 21 kts 224°
2026-05-01 15:04 44.88353 -93.22134 822 ft 15 kts 300°
2026-05-01 15:04 44.88427 -93.22305 824 ft 24 kts 302°
2026-05-01 15:04 44.88511 -93.22501 822 ft 22 kts 301°
2026-05-01 15:04 44.88591 -93.22684 824 ft 21 kts 301°
2026-05-01 15:05 44.88664 -93.22854 824 ft 19 kts 301°
2026-05-01 15:05 44.88732 -93.23011 825 ft 18 kts 301°
2026-05-01 15:05 44.88799 -93.23166 823 ft 18 kts 301°
2026-05-01 15:05 44.88849 -93.23291 825 ft 6 kts 287°
2026-05-01 15:06 44.88848 -93.23313 825 ft 0 kts 262°
2026-05-01 15:06 44.88837 -93.23342 824 ft 10 kts 232°
2026-05-01 15:06 44.88760 -93.23367 827 ft 11 kts 138°
2026-05-01 15:06 44.88707 -93.23252 823 ft 23 kts 122°
2026-05-01 15:07 44.88593 -93.22983 822 ft 73 kts 120°
2026-05-01 15:07 44.88217 -93.22111 826 ft 132 kts 121°
2026-05-01 15:07 44.87658 -93.20827 925 ft 167 kts 119°
2026-05-01 15:07 44.86996 -93.19531 1639 ft 167 kts 143°
2026-05-01 15:08 44.85876 -93.19015 2279 ft 174 kts 166°
2026-05-01 15:08 44.84648 -93.18788 2813 ft 185 kts 175°
2026-05-01 15:08 44.83313 -93.18767 3121 ft 199 kts 179°
2026-05-01 15:08 44.81882 -93.18779 3354 ft 214 kts 179°
2026-05-01 15:09 44.80328 -93.18763 3562 ft 232 kts 178°
2026-05-01 15:09 44.78633 -93.18704 3768 ft 256 kts 177°
2026-05-01 15:09 44.76798 -93.18626 4306 ft 269 kts 178°
2026-05-01 15:09 44.74910 -93.18548 5118 ft 274 kts 178°
2026-05-01 15:10 44.72994 -93.18481 5934 ft 277 kts 179°
2026-05-01 15:10 44.69102 -93.18365 7540 ft 283 kts 180°
2026-05-01 15:10 44.67116 -93.18314 8297 ft 287 kts 180°
2026-05-01 15:11 44.65105 -93.18263 9036 ft 291 kts 179°
2026-05-01 15:11 44.61145 -93.16862 10400 ft 302 kts 153°
2026-05-01 15:11 44.59167 -93.15473 10590 ft 326 kts 153°
2026-05-01 15:12 44.57100 -93.14020 10720 ft 348 kts 153°
2026-05-01 15:12 44.52520 -93.10799 11329 ft 377 kts 153°
2026-05-01 15:12 44.50152 -93.09143 11961 ft 382 kts 153°
2026-05-01 15:13 44.42883 -93.04088 13872 ft 395 kts 154°
2026-05-01 15:14 44.37912 -93.00641 14983 ft 402 kts 154°
2026-05-01 15:14 44.35399 -92.98897 15535 ft 405 kts 154°
2026-05-01 15:14 44.30306 -92.95364 16616 ft 412 kts 154°
2026-05-01 15:15 44.25138 -92.91784 17639 ft 418 kts 154°
2026-05-01 15:15 44.19882 -92.88159 18628 ft 424 kts 154°
2026-05-01 15:16 44.14551 -92.84488 19506 ft 429 kts 154°
2026-05-01 15:16 44.09170 -92.80789 20437 ft 434 kts 154°
2026-05-01 15:17 44.03734 -92.77061 21349 ft 438 kts 154°
2026-05-01 15:18 43.95479 -92.71404 22685 ft 444 kts 154°
2026-05-01 15:18 43.92696 -92.69503 23121 ft 446 kts 154°
2026-05-01 15:19 43.84269 -92.63756 24216 ft 454 kts 154°
2026-05-01 15:19 43.78435 -92.60195 24891 ft 457 kts 163°
2026-05-01 15:19 43.75333 -92.59207 25235 ft 458 kts 172°
2026-05-01 15:20 43.68985 -92.58160 25877 ft 461 kts 174°
2026-05-01 15:20 43.65785 -92.57642 26193 ft 463 kts 174°
2026-05-01 15:20 43.62580 -92.57122 26507 ft 465 kts 174°
2026-05-01 15:21 43.59360 -92.56597 26817 ft 467 kts 174°
2026-05-01 15:21 43.56124 -92.56066 27149 ft 468 kts 174°
2026-05-01 15:21 43.52881 -92.55533 27458 ft 470 kts 174°
2026-05-01 15:21 43.49628 -92.54997 27791 ft 471 kts 174°
2026-05-01 15:22 43.43137 -92.53937 28627 ft 469 kts 174°
2026-05-01 15:22 43.39902 -92.53413 29028 ft 468 kts 174°
2026-05-01 15:22 43.36675 -92.52887 29438 ft 467 kts 174°
2026-05-01 15:23 43.33455 -92.52361 29846 ft 465 kts 174°
2026-05-01 15:23 43.30248 -92.51837 30227 ft 464 kts 174°
2026-05-01 15:23 43.27035 -92.51318 30535 ft 464 kts 174°
2026-05-01 15:23 43.23832 -92.50802 30832 ft 464 kts 175°
2026-05-01 15:24 43.20627 -92.50286 31140 ft 464 kts 175°
2026-05-01 15:24 43.17369 -92.49758 31424 ft 465 kts 175°
2026-05-01 15:24 43.14202 -92.49247 31705 ft 465 kts 176°
2026-05-01 15:24 43.10947 -92.48723 31989 ft 465 kts 176°
2026-05-01 15:25 43.07734 -92.48204 32281 ft 465 kts 176°
2026-05-01 15:25 43.04522 -92.47684 32563 ft 465 kts 176°
2026-05-01 15:25 43.01306 -92.47165 32842 ft 465 kts 176°
2026-05-01 15:25 42.98097 -92.46647 33105 ft 465 kts 177°
2026-05-01 15:26 42.94889 -92.46132 33375 ft 465 kts 177°
2026-05-01 15:26 42.91679 -92.45619 33655 ft 464 kts 177°
2026-05-01 15:26 42.88461 -92.45105 33931 ft 464 kts 178°
2026-05-01 15:26 42.85275 -92.44596 34182 ft 464 kts 178°
2026-05-01 15:27 42.82064 -92.44086 34392 ft 464 kts 178°
2026-05-01 15:27 42.78853 -92.43576 34607 ft 464 kts 178°
2026-05-01 15:27 42.75640 -92.43065 34810 ft 464 kts 178°
2026-05-01 15:28 42.69223 -92.42053 35111 ft 465 kts 178°
2026-05-01 15:28 42.62817 -92.41032 35128 ft 463 kts 178°
2026-05-01 15:29 42.53226 -92.39496 35128 ft 462 kts 178°
2026-05-01 15:30 42.40470 -92.37079 35126 ft 463 kts 177°
2026-05-01 15:31 42.21360 -92.33546 35123 ft 461 kts 178°
2026-05-01 15:32 42.08602 -92.31198 35109 ft 460 kts 178°
2026-05-01 15:34 41.89572 -92.27714 35109 ft 459 kts 179°